When you browse on this site, cookies collect data to enhance your experience and personalize the content and advertising you see.
Visit our Privacy Policy to learn more. By continuing to use the site, you agree to this use of cookies and data.
  • In Lithuania
  • List of Countries
  • For 7 days
  • Water Temperature
  • Satellite Maps
  • Weather Map
  • Weather Widgets
  • user-avatar
    Login

    Hourly Weather Ischgl

    Today, 16 December, Sunday

    Time Temperature Precipitation Wind Pressure Humidity
    00:00 -15°C° 0 mm 2 mps 567 mmHg 45%
    01:00 -14°C° 0 mm 2 mps 567 mmHg 45%
    02:00 -13°C° 0.1 mm 2 mps 567 mmHg 53%
    03:00 -13°C° 0.1 mm 2 mps 567 mmHg 62%
    04:00 -12°C° 0.1 mm 2 mps 568 mmHg 71%
    05:00 -12°C° 0.8 mm 2 mps 568 mmHg 77%
    06:00 -10°C° 0.8 mm 2 mps 568 mmHg 83%
    07:00 -10°C° 0.8 mm 2 mps 568 mmHg 89%
    08:00 -9°C° 0.3 mm 2 mps 568 mmHg 89%
    09:00 -8°C° 0.3 mm 2 mps 569 mmHg 88%
    10:00 -7°C° 0.3 mm 2 mps 569 mmHg 87%
    11:00 -6°C° 0.2 mm 2 mps 569 mmHg 87%
    12:00 -3°C° 0.2 mm 1 mps 570 mmHg 87%
    13:00 -3°C° 0.2 mm 1 mps 570 mmHg 88%
    14:00 -3°C° 0.1 mm 1 mps 570 mmHg 89%
    15:00 -4°C° 0.1 mm 1 mps 569 mmHg 91%
    16:00 -6°C° 0.1 mm 1 mps 569 mmHg 92%
    17:00 -6°C° 0.2 mm 1 mps 569 mmHg 93%
    18:00 -7°C° 0.2 mm 1 mps 569 mmHg 93%
    19:00 -7°C° 0.2 mm 1 mps 569 mmHg 94%
    20:00 -7°C° 0.4 mm 1 mps 569 mmHg 94%
    21:00 -7°C° 0.4 mm 1 mps 569 mmHg 94%
    22:00 -7°C° 0.4 mm 1 mps 570 mmHg 95%
    23:00 -8°C° 0.1 mm 1 mps 569 mmHg 94%

    Tomorrow, 17 December, Monday

    Time Temperature Precipitation Wind Pressure Humidity
    00:00 -8°C° 0.1 mm 1 mps 569 mmHg 93%
    01:00 -9°C° 0.1 mm 1 mps 569 mmHg 93%
    02:00 -9°C° 0 mm 1 mps 568 mmHg 91%
    03:00 -10°C° 0 mm 1 mps 568 mmHg 90%
    04:00 -10°C° 0 mm 1 mps 568 mmHg 88%
    05:00 -11°C° 0 mm 1 mps 568 mmHg 87%
    06:00 -11°C° 0 mm 1 mps 568 mmHg 86%
    07:00 -11°C° 0 mm 1 mps 568 mmHg 85%
    08:00 -11°C° 0 mm 1 mps 569 mmHg 84%
    09:00 -12°C° 0 mm 2 mps 570 mmHg 84%
    10:00 -10°C° 0 mm 2 mps 571 mmHg 83%
    11:00 -9°C° 0 mm 2 mps 571 mmHg 83%
    12:00 -8°C° 0 mm 2 mps 572 mmHg 82%
    13:00 -7°C° 0 mm 2 mps 572 mmHg 82%
    14:00 -7°C° 0.1 mm 2 mps 572 mmHg 85%
    15:00 -8°C° 0.1 mm 2 mps 573 mmHg 89%
    16:00 -9°C° 0.1 mm 2 mps 573 mmHg 92%
    17:00 -9°C° 0.1 mm 2 mps 573 mmHg 93%
    18:00 -9°C° 0.1 mm 2 mps 574 mmHg 93%
    19:00 -10°C° 0.1 mm 2 mps 574 mmHg 93%
    20:00 -10°C° 0 mm 2 mps 574 mmHg 94%
    21:00 -12°C° 0 mm 2 mps 574 mmHg 94%
    22:00 -12°C° 0 mm 2 mps 574 mmHg 94%
    23:00 -11°C° 0 mm 1 mps 574 mmHg 94%

    Day after tomorrow, 18 December, Tuesday

    Time Temperature Precipitation Wind Pressure Humidity
    00:00 -11°C° 0 mm 1 mps 574 mmHg 94%
    01:00 -11°C° 0 mm 1 mps 574 mmHg 93%
    02:00 -12°C° 0 mm 1 mps 574 mmHg 91%
    03:00 -12°C° 0 mm 1 mps 573 mmHg 88%
    04:00 -15°C° 0 mm 2 mps 573 mmHg 85%
    05:00 -13°C° 0 mm 1 mps 573 mmHg 77%
    06:00 -13°C° 0 mm 1 mps 573 mmHg 70%
    07:00 -13°C° 0 mm 1 mps 573 mmHg 62%
    08:00 -11°C° 0 mm 1 mps 574 mmHg 60%
    09:00 -12°C° 0 mm 2 mps 575 mmHg 58%
    10:00 -9°C° 0 mm 2 mps 575 mmHg 57%
    11:00 -8°C° 0 mm 2 mps 576 mmHg 60%
    12:00 -6°C° 0 mm 2 mps 576 mmHg 63%
    13:00 -5°C° 0 mm 2 mps 576 mmHg 65%
    14:00 -6°C° 0 mm 2 mps 575 mmHg 65%
    15:00 -7°C° 0 mm 2 mps 575 mmHg 65%
    16:00 -8°C° 0 mm 2 mps 574 mmHg 65%
    17:00 -9°C° 0 mm 2 mps 573 mmHg 62%
    18:00 -10°C° 0 mm 2 mps 573 mmHg 59%
    19:00 -12°C° 0 mm 2 mps 573 mmHg 56%
    20:00 -12°C° 0 mm 2 mps 573 mmHg 53%
    21:00 -10°C° 0 mm 2 mps 573 mmHg 50%
    22:00 -10°C° 0 mm 2 mps 573 mmHg 48%
    23:00 -10°C° 0 mm 2 mps 572 mmHg 47%

    19 December, Wednesday

    Time Temperature Precipitation Wind Pressure Humidity
    00:00 -10°C° 0 mm 2 mps 572 mmHg 46%
    01:00 -10°C° 0 mm 2 mps 572 mmHg 45%
    02:00 -10°C° 0 mm 2 mps 572 mmHg 45%
    03:00 -10°C° 0 mm 2 mps 572 mmHg 45%
    04:00 -9°C° 0 mm 2 mps 572 mmHg 45%
    05:00 -9°C° 0 mm 2 mps 572 mmHg 45%
    06:00 -9°C° 0 mm 2 mps 572 mmHg 46%
    07:00 -9°C° 0 mm 2 mps 572 mmHg 46%
    08:00 -8°C° 0 mm 2 mps 572 mmHg 50%
    09:00 -7°C° 0 mm 2 mps 573 mmHg 55%
    10:00 -6°C° 0 mm 2 mps 573 mmHg 59%
    11:00 -6°C° 0 mm 2 mps 573 mmHg 63%
    12:00 -5°C° 0 mm 2 mps 574 mmHg 66%
    13:00 -4°C° 0 mm 2 mps 574 mmHg 70%
    14:00 -5°C° 0 mm 2 mps 573 mmHg 72%
    15:00 -6°C° 0 mm 2 mps 572 mmHg 74%
    16:00 -7°C° 0 mm 2 mps 572 mmHg 76%
    17:00 -8°C° 0 mm 2 mps 571 mmHg 77%
    18:00 -10°C° 0 mm 3 mps 571 mmHg 77%
    19:00 -12°C° 0 mm 3 mps 570 mmHg 78%
    20:00 -12°C° 0 mm 3 mps 570 mmHg 80%
    21:00 -10°C° 0 mm 3 mps 570 mmHg 81%
    22:00 -10°C° 0 mm 3 mps 571 mmHg 83%
    23:00 -10°C° 0 mm 3 mps 571 mmHg 84%

    20 December, Thursday

    Time Temperature Precipitation Wind Pressure Humidity
    00:00 -9°C° 0 mm 2 mps 571 mmHg 84%
    01:00 -9°C° 0 mm 2 mps 571 mmHg 85%
    02:00 -9°C° 0.4 mm 2 mps 571 mmHg 87%
    03:00 -8°C° 0.4 mm 1 mps 571 mmHg 90%
    04:00 -7°C° 0.4 mm 1 mps 571 mmHg 92%
    05:00 -8°C° 0.7 mm 1 mps 571 mmHg 93%
    06:00 -8°C° 0.7 mm 1 mps 571 mmHg 94%
    07:00 -8°C° 0.7 mm 1 mps 571 mmHg 95%
    08:00 -7°C° 0.7 mm 1 mps 571 mmHg 94%
    09:00 -7°C° 0.7 mm 1 mps 572 mmHg 94%
    10:00 -7°C° 0.7 mm 1 mps 572 mmHg 94%
    11:00 -6°C° 0.6 mm 1 mps 572 mmHg 94%
    12:00 -6°C° 0.6 mm 1 mps 572 mmHg 93%
    13:00 -7°C° 0.6 mm 2 mps 572 mmHg 93%
    14:00 -7°C° 0.6 mm 2 mps 572 mmHg 94%
    15:00 -7°C° 0.6 mm 2 mps 572 mmHg 95%
    16:00 -8°C° 0.6 mm 2 mps 572 mmHg 96%
    17:00 -8°C° 0.5 mm 2 mps 572 mmHg 96%
    18:00 -8°C° 0.5 mm 2 mps 572 mmHg 96%
    19:00 -10°C° 0.5 mm 3 mps 573 mmHg 96%
    20:00 -10°C° 0.3 mm 3 mps 573 mmHg 96%
    21:00 -9°C° 0.3 mm 2 mps 573 mmHg 96%
    22:00 -10°C° 0.3 mm 2 mps 573 mmHg 96%
    23:00 -10°C° 0.1 mm 2 mps 573 mmHg 96%

    21 December, Friday

    Time Temperature Precipitation Wind Pressure Humidity
    00:00 -12°C° 0.1 mm 2 mps 573 mmHg 95%
    01:00 -12°C° 0.1 mm 2 mps 573 mmHg 95%
    02:00 -13°C° 0 mm 2 mps 573 mmHg 94%
    03:00 -14°C° 0 mm 2 mps 573 mmHg 94%
    04:00 -14°C° 0 mm 2 mps 573 mmHg 93%
    05:00 -15°C° 0 mm 2 mps 573 mmHg 92%
    06:00 -15°C° 0 mm 2 mps 573 mmHg 91%
    07:00 -16°C° 0 mm 2 mps 572 mmHg 89%
    08:00 -15°C° 0 mm 2 mps 573 mmHg 84%
    09:00 -13°C° 0 mm 2 mps 574 mmHg 79%
    10:00 -12°C° 0 mm 2 mps 575 mmHg 74%
    11:00 -8°C° 0 mm 1 mps 575 mmHg 71%
    12:00 -6°C° 0 mm 1 mps 576 mmHg 68%
    13:00 -3°C° 0 mm 1 mps 576 mmHg 65%
    14:00 -4°C° 0 mm 1 mps 575 mmHg 63%
    15:00 -6°C° 0 mm 1 mps 575 mmHg 61%
    16:00 -7°C° 0 mm 1 mps 574 mmHg 59%
    17:00 -8°C° 0 mm 1 mps 574 mmHg 55%
    18:00 -9°C° 0 mm 2 mps 574 mmHg 51%
    19:00 -9°C° 0 mm 2 mps 574 mmHg 47%
    20:00 -8°C° 0 mm 2 mps 575 mmHg 49%
    21:00 -8°C° 0 mm 2 mps 575 mmHg 52%
    22:00 -7°C° 0 mm 2 mps 575 mmHg 54%
    23:00 -7°C° 0.2 mm 2 mps 575 mmHg 60%
    Show more